Mount Airy, NC

1:13 AM EST on January 20, 2017 (GMT -0500)
Mount Airy-Surry County

Weather History for KMWK - November, 2012

Change the Weather History Date:

Saturday, November 24, 2012

  Actual Average (KINT) Record (KINT)
Temperature  
Mean Temperature 37 °F -  
Max Temperature 44 °F 56 °F 75 °F (1973)
Min Temperature 30 °F 38 °F 13 °F (1970)
Degree Days  
Heating Degree Days 28    
Moisture  
Dew Point 20 °F    
Average Humidity 47    
Maximum Humidity 64    
Minimum Humidity 29    
Precipitation  
Precipitation 0.00 in - - ()
Sea Level Pressure  
Sea Level Pressure 30.01 in    
Wind  
Wind Speed 9 mph (NW)    
Max Wind Speed 15 mph    
Max Gust Speed 24 mph    
Visibility 10 miles    
Events      
Averages and records for this station are not official NWS values.
T = Trace of Precipitation, MM = Missing Value Source: NWS Daily Summary

Daily Weather History Graph

Daily Weather History Graph

Search for Another Location

Airport or City:

Trip Planner

Search our weather history database for the weather conditions in past years. The results will help you decide how hot, cold, wet, or windy it might be!

Date:

Astronomy

Nov. 24, 2012 Rise Set
Actual Time 7:09 AM EST 5:08 PM EST
Civil Twilight 6:41 AM EST 5:36 PM EST
Nautical Twilight 6:09 AM EST 6:08 PM EST
Astronomical Twilight 5:38 AM EST 6:39 PM EST
Moon 2:48 PM EST (11/24) 3:29 AM EST (11/24)
Length of Visible Light 10h 55m
Length of Day
9h 59m
Waxing Gibbous, 87% of the Moon is Illuminated
Nov 24
Waxing Gibbous
Nov 28
Full
Dec 6
Last Quarter
Dec 13
New
Dec 20
First Quarter

Hourly Weather History & Observations

Time (EST) Temp. Windchill Dew Point Humidity Pressure Visibility Wind Dir Wind Speed Gust Speed Precip Events Conditions
12:15 AM 44.6 °F 39.2 °F 28.4 °F 53% 29.95 in 10.0 mi WNW 10.4 mph 19.6 mph N/A   Clear
12:35 AM 44.6 °F 40.7 °F 28.4 °F 53% 29.94 in 10.0 mi WNW 6.9 mph 16.1 mph N/A   Clear
12:55 AM 44.6 °F 40.7 °F 28.4 °F 53% 29.94 in 10.0 mi WNW 6.9 mph 17.3 mph N/A   Clear
1:15 AM 44.6 °F 40.2 °F 28.4 °F 53% 29.94 in 10.0 mi WNW 8.1 mph - N/A   Clear
1:55 AM 42.8 °F 38.6 °F 28.4 °F 57% 29.94 in 10.0 mi NW 6.9 mph - N/A   Clear
2:15 AM 41.0 °F 36.4 °F 28.4 °F 61% 29.94 in 10.0 mi NW 6.9 mph - N/A   Clear
2:55 AM 41.0 °F 37.1 °F 26.6 °F 57% 29.95 in 10.0 mi NW 5.8 mph - N/A   Clear
3:15 AM 41.0 °F 33.1 °F 26.6 °F 57% 29.95 in 10.0 mi NW 15.0 mph 21.9 mph N/A   Clear
3:35 AM 41.0 °F 33.9 °F 24.8 °F 53% 29.94 in 10.0 mi WNW 12.7 mph 21.9 mph N/A   Clear
3:55 AM 41.0 °F 38.0 °F 24.8 °F 53% 29.94 in 10.0 mi WNW 4.6 mph 19.6 mph N/A   Clear
4:15 AM 41.0 °F 36.4 °F 24.8 °F 53% 29.95 in 10.0 mi West 6.9 mph 20.7 mph N/A   Clear
4:35 AM 39.2 °F 32.0 °F 24.8 °F 56% 29.95 in 10.0 mi WNW 11.5 mph 20.7 mph N/A   Clear
4:55 AM 39.2 °F 31.6 °F 24.8 °F 56% 29.95 in 10.0 mi WNW 12.7 mph 23.0 mph N/A   Clear
5:15 AM 39.2 °F 33.0 °F 23.0 °F 52% 29.96 in 10.0 mi WNW 9.2 mph 18.4 mph N/A   Clear
5:35 AM 37.4 °F 30.8 °F 24.8 °F 60% 29.97 in 10.0 mi NW 9.2 mph 17.3 mph N/A   Clear
5:55 AM 37.4 °F 32.1 °F 24.8 °F 60% 29.97 in 10.0 mi WNW 6.9 mph - N/A   Clear
6:15 AM 37.4 °F 30.8 °F 23.0 °F 56% 29.98 in 10.0 mi NW 9.2 mph - N/A   Clear
6:35 AM 37.4 °F 30.3 °F 23.0 °F 56% 29.98 in 10.0 mi NW 10.4 mph 18.4 mph N/A   Clear
7:15 AM 37.4 °F 30.8 °F 21.2 °F 52% 29.98 in 10.0 mi WNW 9.2 mph - N/A   Clear
7:35 AM 37.4 °F 30.8 °F 21.2 °F 52% 29.98 in 10.0 mi WNW 9.2 mph 16.1 mph N/A   Clear
7:55 AM 37.4 °F 32.8 °F 23.0 °F 56% 29.99 in 10.0 mi WNW 5.8 mph 18.4 mph N/A   Clear
8:15 AM 37.4 °F 31.4 °F 21.2 °F 52% 30.00 in 10.0 mi WNW 8.1 mph 17.3 mph N/A   Clear
8:35 AM 37.4 °F 30.8 °F 21.2 °F 52% 30.01 in 10.0 mi NW 9.2 mph 18.4 mph N/A   Clear
8:55 AM 39.2 °F 32.5 °F 19.4 °F 45% 30.01 in 10.0 mi NW 10.4 mph 24.2 mph N/A   Clear
9:15 AM 39.2 °F 32.0 °F 19.4 °F 45% 30.02 in 10.0 mi WNW 11.5 mph 21.9 mph N/A   Clear
9:35 AM 41.0 °F 34.3 °F 19.4 °F 42% 30.02 in 10.0 mi WNW 11.5 mph 19.6 mph N/A   Clear
9:55 AM 41.0 °F 35.2 °F 19.4 °F 42% 30.03 in 10.0 mi WNW 9.2 mph 18.4 mph N/A   Clear
10:15 AM 41.0 °F 35.8 °F 17.6 °F 39% 30.03 in 10.0 mi WNW 8.1 mph 17.3 mph N/A   Clear
10:35 AM 41.0 °F 36.4 °F 17.6 °F 39% 30.03 in 10.0 mi NW 6.9 mph - N/A   Clear
10:55 AM 42.8 °F 38.6 °F 17.6 °F 36% 30.03 in 10.0 mi NW 6.9 mph 18.4 mph N/A   Clear
11:15 AM 42.8 °F 38.6 °F 17.6 °F 36% 30.02 in 10.0 mi NNW 6.9 mph 17.3 mph N/A   Clear
11:35 AM 42.8 °F 36.6 °F 17.6 °F 36% 30.02 in 10.0 mi WNW 11.5 mph 18.4 mph N/A   Clear
11:55 AM 42.8 °F 35.8 °F 17.6 °F 36% 30.01 in 10.0 mi NNW 13.8 mph 19.6 mph N/A   Clear
12:15 PM 42.8 °F 36.2 °F 17.6 °F 36% 30.01 in 10.0 mi WNW 12.7 mph 19.6 mph N/A   Clear
12:35 PM 42.8 °F 36.6 °F 15.8 °F 34% 30.00 in 10.0 mi WNW 11.5 mph 17.3 mph N/A   Clear
12:55 PM 42.8 °F 39.3 °F 17.6 °F 36% 30.00 in 10.0 mi WNW 5.8 mph - N/A   Clear
1:15 PM 44.6 °F 38.4 °F 15.8 °F 31% 30.00 in 10.0 mi NW 12.7 mph 17.3 mph N/A   Clear
1:35 PM 44.6 °F 38.8 °F 14.0 °F 29% 30.00 in 10.0 mi WNW 11.5 mph 19.6 mph N/A   Clear
1:55 PM 44.6 °F 38.8 °F 17.6 °F 34% 30.00 in 10.0 mi NW 11.5 mph 18.4 mph N/A   Clear
2:15 PM 44.6 °F 39.7 °F 14.0 °F 29% 30.00 in 10.0 mi West 9.2 mph 18.4 mph N/A   Clear
2:35 PM 44.6 °F 38.8 °F 14.0 °F 29% 30.00 in 10.0 mi WNW 11.5 mph 18.4 mph N/A   Clear
2:55 PM 44.6 °F 38.8 °F 14.0 °F 29% 30.00 in 10.0 mi NW 11.5 mph 17.3 mph N/A   Clear
3:15 PM 44.6 °F 38.1 °F 14.0 °F 29% 30.01 in 10.0 mi NW 13.8 mph - N/A   Clear
3:35 PM 42.8 °F 38.0 °F 14.0 °F 31% 30.02 in 10.0 mi NW 8.1 mph - N/A   Clear
3:55 PM 42.8 °F 38.6 °F 14.0 °F 31% 30.02 in 10.0 mi NNW 6.9 mph - N/A   Clear
4:15 PM 42.8 °F 38.0 °F 14.0 °F 31% 30.02 in 10.0 mi NW 8.1 mph - N/A   Clear
4:55 PM 39.2 °F 34.2 °F 14.0 °F 36% 30.04 in 10.0 mi NNW 6.9 mph - N/A   Clear
5:15 PM 37.4 °F 31.4 °F 14.0 °F 38% 30.05 in 10.0 mi NW 8.1 mph - N/A   Clear
5:55 PM 35.6 °F 29.9 °F 15.8 °F 44% 30.07 in 10.0 mi NW 6.9 mph - N/A   Clear
6:15 PM 35.6 °F 29.9 °F 17.6 °F 48% 30.07 in 10.0 mi NW 6.9 mph - N/A   Clear
6:35 PM 35.6 °F 29.2 °F 17.6 °F 48% 30.08 in 10.0 mi NNW 8.1 mph - N/A   Clear
6:55 PM 33.8 °F 28.6 °F 17.6 °F 52% 30.08 in 10.0 mi NNW 5.8 mph - N/A   Clear
7:15 PM 33.8 °F 30.8 °F 17.6 °F 52% 30.09 in 10.0 mi NNW 3.5 mph - N/A   Clear
7:35 PM 33.8 °F - 17.6 °F 52% 30.10 in 10.0 mi Calm Calm - N/A   Clear
7:55 PM 32.0 °F 27.5 °F 17.6 °F 55% 30.10 in 10.0 mi North 4.6 mph - N/A   Clear
8:15 PM 32.0 °F 28.7 °F 17.6 °F 55% 30.10 in 10.0 mi North 3.5 mph - N/A   Clear
8:55 PM 32.0 °F 27.5 °F 17.6 °F 55% 30.10 in 10.0 mi NW 4.6 mph - N/A   Clear
9:15 PM 32.0 °F 27.5 °F 17.6 °F 55% 30.10 in 10.0 mi NNW 4.6 mph - N/A   Clear
9:35 PM 32.0 °F 28.7 °F 17.6 °F 55% 30.10 in 10.0 mi NW 3.5 mph - N/A   Clear
9:55 PM 30.2 °F 23.4 °F 19.4 °F 64% 30.10 in 10.0 mi WNW 6.9 mph - N/A   Clear
10:15 PM 32.0 °F 27.5 °F 19.4 °F 60% 30.10 in 10.0 mi WNW 4.6 mph - N/A   Clear
10:55 PM 30.2 °F 24.3 °F 19.4 °F 64% 30.09 in 10.0 mi NW 5.8 mph - N/A   Clear
11:35 PM 30.2 °F - 19.4 °F 64% 30.09 in 10.0 mi Calm Calm - N/A   Clear
11:55 PM 30.2 °F 26.7 °F 19.4 °F 64% 30.09 in 10.0 mi WSW 3.5 mph - N/A   Clear